Plattsburgh, NY

7:15 AM EST on January 24, 2018 (GMT -0500)
Plattsburgh International

Weather History for KPBG - April, 2013

Change the Weather History Date:

Wednesday, April 17, 2013

  Actual Average Record
Temperature  
Mean Temperature 45 °F 44 °F  
Max Temperature 57 °F 54 °F 75 °F (1976)
Min Temperature 32 °F 33 °F 18 °F (2014)
Degree Days  
Heating Degree Days 20 21  
Month to date heating degree days 432 429  
Since 1 July heating degree days 6601 7112  
Cooling Degree Days 0 0  
Month to date cooling degree days 0 0  
Year to date cooling degree days 0 0  
Moisture  
Dew Point 30 °F    
Average Humidity 59    
Maximum Humidity 82    
Minimum Humidity 35    
Precipitation  
Precipitation 0.00 in - 0.72 in (1982)
Month to date precipitation 1.33  
Year to date precipitation 3.69  
Sea Level Pressure  
Sea Level Pressure 30.28 in    
Wind  
Wind Speed 7 mph (NNW)    
Max Wind Speed 20 mph    
Max Gust Speed 29 mph    
Visibility 10 miles    
Events      
T = Trace of Precipitation, MM = Missing Value Source: NWS Daily Summary

Daily Weather History Graph

Daily Weather History Graph

Search for Another Location

Airport or City:

Trip Planner

Search our weather history database for the weather conditions in past years. The results will help you decide how hot, cold, wet, or windy it might be!

Date:

Astronomy

Apr. 17, 2013 Rise Set
Actual Time 6:05 AM EDT 7:41 PM EDT
Civil Twilight 5:35 AM EDT 8:12 PM EDT
Nautical Twilight 4:58 AM EDT 8:49 PM EDT
Astronomical Twilight 4:18 AM EDT 9:29 PM EDT
Moon 11:12 AM EDT (4/17) 1:22 AM EDT (4/17)
Length of Visible Light 14h 37m
Length of Day
13h 35m
Waxing Crescent, 42% of the Moon is Illuminated
Apr 17
Waxing Crescent
Apr 18
First Quarter
Apr 25
Full
May 2
Last Quarter
May 9
New

Hourly Weather History & Observations

Time (EDT) Temp. Windchill Dew Point Humidity Pressure Visibility Wind Dir Wind Speed Gust Speed Precip Events Conditions
12:53 AM 48.0 °F - 34.0 °F 58% 30.13 in 10.0 mi NW 9.2 mph - N/A   Partly Cloudy
1:53 AM 46.9 °F - 32.0 °F 56% 30.15 in 10.0 mi WNW 3.5 mph - N/A   Clear
2:53 AM 46.0 °F 43.9 °F 30.0 °F 54% 30.17 in 10.0 mi West 4.6 mph - N/A   Clear
3:53 AM 43.0 °F 41.3 °F 30.0 °F 60% 30.18 in 10.0 mi WSW 3.5 mph - N/A   Clear
4:53 AM 44.1 °F 39.5 °F 28.0 °F 53% 30.19 in 10.0 mi WNW 8.1 mph - N/A   Clear
5:53 AM 43.0 °F 38.8 °F 28.9 °F 58% 30.21 in 10.0 mi West 6.9 mph - N/A   Clear
6:53 AM 43.0 °F 40.3 °F 30.0 °F 60% 30.24 in 10.0 mi WNW 4.6 mph - N/A   Clear
7:53 AM 45.0 °F 41.2 °F 30.9 °F 58% 30.27 in 10.0 mi NW 6.9 mph - N/A   Clear
8:53 AM 46.0 °F 40.6 °F 32.0 °F 58% 30.29 in 10.0 mi NNW 11.5 mph 20.7 mph N/A   Clear
10:53 AM 50.0 °F - 30.0 °F 46% 30.30 in 10.0 mi North 12.7 mph - N/A   Clear
11:53 AM 53.1 °F - 30.0 °F 41% 30.30 in 10.0 mi NNW 12.7 mph 19.6 mph N/A   Partly Cloudy
12:53 PM - - - N/A% 30.29 in - Variable 5.8 mph - N/A   Partly Cloudy
1:53 PM - - - N/A% 30.29 in - NE 13.8 mph 21.9 mph N/A   Scattered Clouds
2:53 PM 52.0 °F - 30.9 °F 45% 30.30 in 10.0 mi ENE 12.7 mph 19.6 mph N/A   Mostly Cloudy
3:53 PM 54.0 °F - 30.0 °F 40% 30.31 in 10.0 mi North 15.0 mph 18.4 mph N/A   Scattered Clouds
4:53 PM 54.0 °F - 27.0 °F 35% 30.31 in 10.0 mi North 15.0 mph 19.6 mph N/A   Clear
5:53 PM 52.0 °F - 28.9 °F 41% 30.33 in 10.0 mi NE 10.4 mph - N/A   Clear
6:53 PM 50.0 °F - 28.0 °F 43% 30.34 in 10.0 mi NNE 8.1 mph - N/A   Clear
7:53 PM 46.9 °F - 28.0 °F 48% 30.35 in 10.0 mi NNE 4.6 mph - N/A   Clear
8:53 PM 41.0 °F - 30.0 °F 65% 30.35 in 10.0 mi Calm Calm - N/A   Clear
9:53 PM 37.0 °F - 30.9 °F 79% 30.34 in 10.0 mi Calm Calm - N/A   Clear
10:53 PM 36.0 °F - 28.9 °F 76% 30.33 in 10.0 mi Calm Calm - N/A   Clear
11:53 PM 34.0 °F - 28.9 °F 82% 30.36 in 10.0 mi Calm Calm - N/A   Clear